H1 CPF 2 NER 2024 11 21 9 326 01 glonass144 H2 2207501 9144 52984 2024 11 21 0 0 0 2024 11 24 23 45 0 900 1 1 0 0 0 1 H9 10 0 60635 0.00000 0 -10918848.609 7394285.215 -21804245.366 10 0 60635 900.00000 0 -10774713.074 4649255.128 -22617006.715 10 0 60635 1800.00000 0 -10832576.868 1827855.084 -22989108.957 10 0 60635 2700.00000 0 -11096991.131 -1000164.182 -22913252.813 10 0 60635 3600.00000 0 -11560214.267 -3765149.691 -22390890.582 10 0 60635 4500.00000 0 -12202518.046 -6400210.180 -21432199.730 10 0 60635 5400.00000 0 -12993019.738 -8843763.268 -20055883.479 10 0 60635 6300.00000 0 -13891005.086 -11041859.459 -18288802.236 10 0 60635 7200.00000 0 -14847685.845 -12950185.981 -16165443.251 10 0 60635 8100.00000 0 -15808316.985 -14535667.137 -13727239.239 10 0 60635 9000.00000 0 -16714583.217 -15777595.028 -11021749.819 10 0 60635 9900.00000 0 -17507152.984 -16668244.502 -8101722.582 10 0 60635 10800.00000 0 -18128290.926 -17212948.240 -5024053.072 10 0 60635 11700.00000 0 -18524417.504 -17429630.875 -1848665.055 10 0 60635 12600.00000 0 -18648506.864 -17347824.052 1362665.920 10 0 60635 13500.00000 0 -18462221.249 -17007206.313 4547521.691 10 0 60635 14400.00000 0 -17937691.723 -16455731.649 7644058.959 10 0 60635 15300.00000 0 -17058870.335 -15747427.662 10592210.736 10 0 60635 16200.00000 0 -15822397.252 -14939957.764 13334848.217 10 0 60635 17100.00000 0 -14237946.970 -14092051.235 15818880.740 10 0 60635 18000.00000 0 -12328039.734 -13260909.810 17996273.096 10 0 60635 18900.00000 0 -10127326.538 -12499699.802 19824961.580 10 0 60635 19800.00000 0 -7681377.777 -11855234.457 21269652.419 10 0 60635 20700.00000 0 -5045025.919 -11365942.817 22302488.681 10 0 60635 21600.00000 0 -2280330.533 -11060208.947 22903574.390 10 0 60635 22500.00000 0 545750.899 -10955149.783 23061347.221 10 0 60635 23400.00000 0 3363891.222 -11055881.627 22772793.760 10 0 60635 24300.00000 0 6105018.003 -11355305.110 22043503.985 10 0 60635 25200.00000 0 8702927.380 -11834417.264 20887564.262 10 0 60635 26100.00000 0 11096781.126 -12463137.722 19327290.693 10 0 60635 27000.00000 0 13233385.381 -13201615.047 17392807.360 10 0 60635 27900.00000 0 15069158.175 -14001959.414 15121476.455 10 0 60635 28800.00000 0 16571705.240 -14810330.210 12557190.030 10 0 60635 29700.00000 0 17720939.392 -15569292.163 9749535.525 10 0 60635 30600.00000 0 18509697.184 -16220342.142 6752849.726 10 0 60635 31500.00000 0 18943827.048 -16706501.145 3625178.164 10 0 60635 32400.00000 0 19041744.905 -16974862.675 427159.046 10 0 60635 33300.00000 0 18833475.371 -16978989.949 -2779147.387 10 0 60635 34200.00000 0 18359218.260 -16681060.065 -5931461.646 10 0 60635 35100.00000 0 17667500.187 -16053663.379 -8968496.555 10 0 60635 36000.00000 0 16812988.826 -15081180.401 -11831153.673 10 0 60635 36900.00000 0 15854061.864 -13760676.013 -14463680.642 10 0 60635 37800.00000 0 14850233.469 -12102271.001 -16814766.122 10 0 60635 38700.00000 0 13859547.305 -10128972.876 -18838550.118 10 0 60635 39600.00000 0 12936046.915 -7875970.844 -20495529.028 10 0 60635 40500.00000 0 12127431.055 -5389422.535 -21753336.914 10 0 60635 41400.00000 0 11472993.941 -2724781.657 -22587386.977 10 0 60635 42300.00000 0 11001938.214 55264.603 -22981359.990 10 0 60635 43200.00000 0 10732132.651 2883163.010 -22927529.617 10 0 60635 44100.00000 0 10669367.636 5689068.103 -22426917.818 10 0 60635 45000.00000 0 10807140.190 8403515.006 -21489276.969 10 0 60635 45900.00000 0 11126977.673 10960079.620 -20132898.884 10 0 60635 46800.00000 0 11599286.238 13297914.979 -18384254.428 10 0 60635 47700.00000 0 12184687.622 15364057.751 -16277470.922 10 0 60635 48600.00000 0 12835786.925 17115408.605 -13853657.900 10 0 60635 49500.00000 0 13499295.566 18520304.056 -11160094.937 10 0 60635 50400.00000 0 14118418.384 19559614.783 -8249298.222 10 0 60635 51300.00000 0 14635402.684 20227325.649 -5177985.037 10 0 60635 52200.00000 0 14994140.148 20530574.785 -2005957.428 10 0 60635 53100.00000 0 15142710.556 20489152.116 1205071.988 10 0 60635 54000.00000 0 15035758.994 20134480.674 4392688.140 10 0 60635 54900.00000 0 14636605.682 19508125.847 7494991.147 10 0 60635 55800.00000 0 13918999.238 18659897.469 10451799.117 10 0 60635 56700.00000 0 12868439.670 17645626.471 13205812.521 10 0 60635 57600.00000 0 11483015.812 16524710.967 15703717.715 10 0 60635 58500.00000 0 9773722.488 15357535.762 17897208.803 10 0 60635 59400.00000 0 7764244.564 14202873.835 19743909.084 10 0 60635 60300.00000 0 5490217.108 13115378.371 21208175.617 10 0 60635 61200.00000 0 2997992.473 12143269.563 22261772.872 10 0 60635 62100.00000 0 342965.136 11326311.694 22884404.068 10 0 60635 63000.00000 0 -2412477.023 10694163.638 23064091.436 10 0 60635 63900.00000 0 -5201291.340 10265170.244 22797399.264 10 0 60635 64800.00000 0 -7954313.609 10045643.826 22089496.286 10 0 60635 65700.00000 0 -10602883.006 10029664.818 20954056.547 10 0 60635 66600.00000 0 -13081451.913 10199409.433 19413000.504 10 0 60635 67500.00000 0 -15330074.454 10525990.624 17496080.733 10 0 60635 68400.00000 0 -17296672.261 10970777.531 15240319.168 10 0 60635 69300.00000 0 -18938984.675 11487138.929 12689305.425 10 0 60635 70200.00000 0 -20226123.187 12022538.443 9892368.247 10 0 60635 71100.00000 0 -21139665.803 12520894.519 6903634.616 10 0 60635 72000.00000 0 -21674245.592 12925106.621 3780993.402 10 0 60635 72900.00000 0 -21837608.435 13179641.754 584982.525 10 0 60635 73800.00000 0 -21650136.925 13233072.240 -2622379.522 10 0 60635 74700.00000 0 -21143859.613 13040457.164 -5778795.468 10 0 60635 75600.00000 0 -20360986.520 12565465.848 -8822900.986 10 0 60635 76500.00000 0 -19352031.912 11782152.163 -11695462.465 10 0 60635 77400.00000 0 -18173603.024 10676302.764 -14340536.859 10 0 60635 78300.00000 0 -16885947.778 9246300.104 -16706570.230 10 0 60635 79200.00000 0 -15550365.040 7503461.427 -18747412.728 10 0 60635 80100.00000 0 -14226587.011 5471837.057 -20423229.235 10 0 60635 81000.00000 0 -12970244.680 3187474.211 -21701287.100 10 0 60635 81900.00000 0 -11830523.866 697175.248 -22556604.773 10 0 60635 82800.00000 0 -10848111.371 -1943199.174 -22972448.006 10 0 60635 83700.00000 0 -10053518.380 -4670812.160 -22940663.345 10 0 60635 84600.00000 0 -9465852.223 -7418231.561 -22461841.973 10 0 60635 85500.00000 0 -9092088.464 -10116010.681 -21545310.371 10 0 60636 0.00000 0 -8926873.885 -12695360.748 -20208947.926 10 0 60636 900.00000 0 -8952868.201 -15090804.720 -18478834.234 10 0 60636 1800.00000 0 -9141609.481 -17242697.928 -16388735.003 10 0 60636 2700.00000 0 -9454865.370 -19099514.622 -13979434.561 10 0 60636 3600.00000 0 -9846411.969 -20619801.414 -11297930.246 10 0 60636 4500.00000 0 -10264163.534 -21773717.602 -8396504.532 10 0 60636 5400.00000 0 -10652561.403 -22544098.419 -5331694.062 10 0 60636 6300.00000 0 -10955119.539 -22926997.832 -2163176.775 10 0 60636 7200.00000 0 -11117017.633 -22931689.744 1047400.034 10 0 60636 8100.00000 0 -11087630.964 -22580129.476 4237626.773 10 0 60636 9000.00000 0 -10822889.278 -21905900.308 7345549.352 10 0 60636 9900.00000 0 -10287364.618 -20952691.442 10310873.344 10 0 60636 10800.00000 0 -9455999.945 -19772373.308 13076130.818 10 0 60636 11700.00000 0 -8315405.908 -18422752.607 15587787.408 10 0 60636 12600.00000 0 -6864671.609 -16965102.405 17797268.651 10 0 60636 13500.00000 0 -5115655.721 -15461571.291 19661886.791 10 0 60636 14400.00000 0 -3092746.008 -13972579.976 21145651.417 10 0 60636 15300.00000 0 -832097.333 -12554313.511 22219949.826 10 0 60636 16200.00000 0 1619620.452 -11256412.725 22864085.543 10 0 60636 17100.00000 0 4206913.418 -10119959.728 23065666.141 10 0 60636 18000.00000 0 6867524.220 -9175839.886 22820834.087 10 0 60636 18900.00000 0 9534778.553 -8443546.964 22134337.025 10 0 60636 19800.00000 0 12140122.028 -7930479.885 21019436.533 10 0 60636 20700.00000 0 14615744.205 -7631759.464 19497656.956 10 0 60636 21600.00000 0 16897182.984 -7530572.160 17598378.598 10 0 60636 22500.00000 0 18925803.043 -7599026.384 15358282.025 10 0 60636 23400.00000 0 20651046.777 -7799485.814 12820652.937 10 0 60636 24300.00000 0 22032365.093 -8086324.385 10034559.525 10 0 60636 25200.00000 0 23040748.136 -8408030.037 7053916.715 10 0 60636 26100.00000 0 23659792.026 -8709569.418 3936454.076 10 0 60636 27000.00000 0 23886256.618 -8934914.485 742606.288 10 0 60636 27900.00000 0 23730090.153 -9029624.612 -2465653.111 10 0 60636 28800.00000 0 23213918.853 -8943374.928 -5626012.388 10 0 60636 29700.00000 0 22372021.880 -8632323.304 -8677033.401 10 0 60636 30600.00000 0 21248833.831 -8061214.668 -11559350.600 10 0 60636 31500.00000 0 19897037.062 -7205131.999 -14216833.286 10 0 60636 32400.00000 0 18375323.645 -6050817.949 -16597687.711 10 0 60636 33300.00000 0 16745921.000 -4597508.941 -18655476.652 10 0 60636 34200.00000 0 15071985.464 -2857244.199 -20350035.662 10 0 60636 35100.00000 0 13414973.849 -854634.292 -21648267.213 10 0 60636 36000.00000 0 11832104.053 1373903.254 -22524796.502 10 0 60636 36900.00000 0 10374012.128 3781411.032 -22962475.367 10 0 60636 37800.00000 0 9082704.835 6312109.847 -22952723.944 10 0 60636 38700.00000 0 7989894.159 8903496.948 -22495702.928 10 0 60636 39600.00000 0 7115783.956 11488737.136 -21600312.749 10 0 60636 40500.00000 0 6468359.599 13999246.974 -20284019.494 10 0 60636 41400.00000 0 6043210.001 16367364.000 -18572510.925 10 0 60636 42300.00000 0 5823888.604 18528988.979 -16499189.455 10 0 60636 43200.00000 0 5782796.895 20426090.418 -14104512.298 10 0 60636 44100.00000 0 5882551.636 22008966.264 -11435192.225 10 0 60636 45000.00000 0 6077776.327 23238168.088 -8543275.291 10 0 60636 45900.00000 0 6317239.347 24086007.438 -5485114.472 10 0 60636 46800.00000 0 6546246.521 24537581.959 -2320260.305 10 0 60636 47700.00000 0 6709185.199 24591279.349 889708.688 10 0 60636 48600.00000 0 6752110.766 24258739.564 4082391.901 10 0 60636 49500.00000 0 6625265.081 23564278.651 7195784.491 10 0 60636 50400.00000 0 6285419.672 22543800.337 10169482.778 10 0 60636 51300.00000 0 5697944.415 21243242.959 12945853.484 10 0 60636 52200.00000 0 4838514.456 19716628.495 15471144.265 10 0 60636 53100.00000 0 3694383.790 18023796.735 17696514.511 10 0 60636 54000.00000 0 2265172.326 16227920.145 19578967.475 10 0 60636 54900.00000 0 563133.774 14392903.451 21082166.990 10 0 60636 55800.00000 0 -1387106.724 12580776.074 22177124.510 10 0 60636 56700.00000 0 -3549334.425 10849185.140 22842744.814 10 0 60636 57600.00000 0 -5877014.270 9249092.078 23066221.360 10 0 60636 58500.00000 0 -8314995.801 7822767.026 22843274.880 10 0 60636 59400.00000 0 -10801584.243 6602162.748 22178231.548 10 0 60636 60300.00000 0 -13270893.515 5607734.035 21083939.584 10 0 60636 61200.00000 0 -15655385.369 4847750.366 19581525.830 10 0 60636 62100.00000 0 -17888491.233 4318129.424 17699996.413 10 0 60636 63000.00000 0 -19907209.690 4002797.815 15475688.176 10 0 60636 63900.00000 0 -21654573.094 3874563.756 12951580.155 10 0 60636 64800.00000 0 -23081881.791 3896465.373 10176476.940 10 0 60636 65700.00000 0 -24150613.399 4023538.544 7204078.160 10 0 60636 66600.00000 0 -24833927.501 4204930.528 4091950.761 10 0 60636 67500.00000 0 -25117702.416 4386270.907 900422.865 10 0 60636 68400.00000 0 -25001059.821 4512200.165 -2308580.179 10 0 60636 69300.00000 0 -24496354.083 4528949.069 -5472735.292 10 0 60636 70200.00000 0 -23628625.536 4386859.376 -8530533.457 10 0 60636 71100.00000 0 -22434539.438 4042738.296 -11422479.932 10 0 60636 72000.00000 0 -20960854.114 3461945.719 -14092258.879 10 0 60636 72900.00000 0 -19262481.885 2620124.144 -16487838.964 10 0 60636 73800.00000 0 -17400223.742 1504496.070 -18562497.490 10 0 60636 74700.00000 0 -15438272.782 114671.787 -20275742.153 10 0 60636 75600.00000 0 -13441591.391 -1537068.826 -21594111.587 10 0 60636 76500.00000 0 -11473272.565 -3426034.625 -22491838.283 10 0 60636 77400.00000 0 -9591996.592 -5515912.748 -22951360.236 10 0 60636 78300.00000 0 -7849690.262 -7760057.924 -22963670.772 10 0 60636 79200.00000 0 -6289487.118 -10103228.694 -22528499.263 10 0 60636 80100.00000 0 -4944074.528 -12483698.590 -21654318.862 10 0 60636 81000.00000 0 -3834496.776 -14835654.227 -20358180.933 10 0 60636 81900.00000 0 -2969463.937 -17091779.921 -18665379.314 10 0 60636 82800.00000 0 -2345194.684 -19185920.322 -16608951.143 10 0 60636 83700.00000 0 -1945798.368 -21055709.158 -14229024.267 10 0 60636 84600.00000 0 -1744178.639 -22645053.512 -11572024.539 10 0 60636 85500.00000 0 -1703418.605 -23906369.170 -8689759.190 10 0 60637 0.00000 0 -1778586.991 -24802473.173 -5638395.407 10 0 60637 900.00000 0 -1918886.944 -25308054.859 -2477353.411 10 0 60637 1800.00000 0 -2070054.493 -25410663.168 731859.091 10 0 60637 2700.00000 0 -2176903.600 -25111171.479 3926852.716 10 0 60637 3600.00000 0 -2185908.617 -24423700.540 7045574.045 10 0 60637 4500.00000 0 -2047713.972 -23375004.940 10027512.268 10 0 60637 5400.00000 0 -1719464.415 -22003350.440 12814870.800 10 0 60637 6300.00000 0 -1166857.351 -20356930.809 15353681.272 10 0 60637 7200.00000 0 -365830.874 -18491891.769 17594838.748 10 0 60637 8100.00000 0 696183.117 -16470045.529 19495039.136 10 0 60637 9000.00000 0 2019492.944 -14356371.677 21017601.944 10 0 60637 9900.00000 0 3591900.072 -12216408.375 22133163.967 10 0 60637 10800.00000 0 5388981.203 -10113641.695 22820232.158 10 0 60637 11700.00000 0 7374888.048 -8107000.334 23065586.487 10 0 60637 12600.00000 0 9503632.150 -6248558.238 22864526.321 10 0 60637 13500.00000 0 11720802.397 -4581538.682 22220956.457 10 0 60637 14400.00000 0 13965645.338 -3138700.886 21147311.605 10 0 60637 15300.00000 0 16173423.557 -1941174.540 19664320.697 10 0 60637 16200.00000 0 18277955.972 -997789.316 17800615.033 10 0 60637 17100.00000 0 20214236.246 -304926.312 15592186.800 10 0 60637 18000.00000 0 21921021.912 153102.956 13081707.153 10 0 60637 18900.00000 0 23343287.569 403165.989 10317715.539 10 0 60637 19800.00000 0 24434440.533 481944.342 7353694.400 10 0 60637 20700.00000 0 25158206.545 434151.145 4247045.829 10 0 60637 21600.00000 0 25490106.316 310405.691 1057988.829 10 0 60637 22500.00000 0 25418460.189 164854.271 -2151602.261 10 0 60637 23400.00000 0 24944877.599 52637.603 -5319396.008 10 0 60637 24300.00000 0 24084209.347 27312.082 -8383815.595 10 0 60637 25200.00000 0 22863963.167 138334.568 -11285240.115 10 0 60637 26100.00000 0 21323205.721 428718.218 -13967171.500 10 0 60637 27000.00000 0 19510995.930 932960.015 -16377343.534 10 0 60637 27900.00000 0 17484414.466 1675329.476 -18468750.514 10 0 60637 28800.00000 0 15306271.586 2668592.934 -20200574.512 10 0 60637 29700.00000 0 13042589.176 3913229.424 -21538992.297 10 0 60637 30600.00000 0 10759962.622 5397173.408 -22457845.373 10 0 60637 31500.00000 0 8522913.317 7096097.167 -22939159.333 10 0 60637 32400.00000 0 6391343.014 8974222.728 -22973501.817 10 0 60637 33300.00000 0 4418196.959 10985630.577 -22560171.642 10 0 60637 34200.00000 0 2647433.837 13076011.177 -21707215.057 10 0 60637 35100.00000 0 1112387.503 15184786.295 -20431268.623 10 0 60637 36000.00000 0 -165411.256 17247511.332 -18757231.706 10 0 60637 36900.00000 0 -1176904.298 19198457.641 -16717775.136 10 0 60637 37800.00000 0 -1925640.124 20973266.059 -14352695.890 10 0 60637 38700.00000 0 -2427368.292 22511559.789 -11708130.924 10 0 60637 39600.00000 0 -2709113.226 23759406.331 -8835646.248 10 0 60637 40500.00000 0 -2807768.661 24671524.760 -5791219.924 10 0 60637 41400.00000 0 -2768274.286 25213145.448 -2634139.868 10 0 60637 42300.00000 0 -2641453.893 25361444.358 574160.869 10 0 60637 43200.00000 0 -2481608.439 25106492.226 3771307.573 10 0 60637 44100.00000 0 -2343967.569 24451679.760 6895201.730 10 0 60637 45000.00000 0 -2282108.680 23413602.238 9885228.805 10 0 60637 45900.00000 0 -2345453.461 22021409.775 12683432.183 10 0 60637 46800.00000 0 -2576948.013 20315651.890 15235630.523 10 0 60637 47700.00000 0 -3011024.344 18346665.988 17492457.358 10 0 60637 48600.00000 0 -3671928.736 16172577.986 19410303.753 10 0 60637 49500.00000 0 -4572486.753 13856998.966 20952147.061 10 0 60637 50400.00000 0 -5713356.162 11466513.730 22088251.244 10 0 60637 51300.00000 0 -7082798.712 9068065.054 22796726.859 10 0 60637 52200.00000 0 -8656980.256 6726341.165 23063941.414 10 0 60637 53100.00000 0 -10400786.981 4501273.313 22884773.460 10 0 60637 54000.00000 0 -12269124.523 2445745.396 22262706.472 10 0 60637 54900.00000 0 -14208647.017 603608.708 21209761.164 10 0 60637 55800.00000 0 -16159845.617 -991917.686 19746267.515 10 0 60637 56700.00000 0 -18059411.254 -2319396.138 17900480.394 10 0 60637 57600.00000 0 -19842775.034 -3369822.707 15708045.205 10 0 60637 58500.00000 0 -21446721.986 -4146756.247 13211322.622 10 0 60637 59400.00000 0 -22811970.493 -4665919.374 10458583.948 10 0 60637 60300.00000 0 -23885610.537 -4954288.100 7503091.150 10 0 60637 61200.00000 0 -24623299.125 -5048708.094 4402077.981 10 0 60637 62100.00000 0 -24991120.756 -4994095.365 1215650.752 10 0 60637 63000.00000 0 -24967034.157 -4841296.733 -1994370.781 10 0 60637 63900.00000 0 -24541843.348 -4644700.117 -5165650.339 10 0 60637 64800.00000 0 -23719650.694 -4459695.562 -8236546.670 10 0 60637 65700.00000 0 -22517771.175 -4340094.726 -11147315.908 10 0 60637 66600.00000 0 -20966109.723 -4335618.760 -13841280.704 10 0 60637 67500.00000 0 -19106026.168 -4489562.007 -16265942.626 10 0 60637 68400.00000 0 -16988734.082 -4836731.868 -18374015.252 10 0 60637 69300.00000 0 -14673299.672 -5401753.712 -20124356.857 10 0 60637 70200.00000 0 -12224323.979 -6197814.368 -21482783.650 10 0 60637 71100.00000 0 -9709405.107 -7225899.212 -22422746.876 10 0 60637 72000.00000 0 -7196486.722 -8474556.918 -22925859.857 10 0 60637 72900.00000 0 -4751203.881 -9920203.420 -22982264.110 10 0 60637 73800.00000 0 -2434337.395 -11527953.737 -22590826.933 10 0 60637 74700.00000 0 -299483.386 -13252947.638 -21759166.245 10 0 60637 75600.00000 0 1608964.486 -15042114.033 -20503501.997 10 0 60637 76500.00000 0 3257435.978 -16836300.166 -18848336.983 10 0 60637 77400.00000 0 4624341.102 -18572675.952 -16825973.378 10 0 60637 78300.00000 0 5700715.393 -20187311.934 -14475874.762 10 0 60637 79200.00000 0 6490327.979 -21617821.906 -11843886.557 10 0 60637 80100.00000 0 7009249.715 -22805958.306 -8981330.840 10 0 60637 81000.00000 0 7284901.741 -23700050.622 -5943994.084 10 0 60637 81900.00000 0 7354626.878 -24257183.751 -2791028.642 10 0 60637 82800.00000 0 7263846.531 -24445024.517 416209.481 10 0 60637 83700.00000 0 7063883.238 -24243219.678 3615362.802 10 0 60637 84600.00000 0 6809542.891 -23644307.203 6744290.129 10 0 60637 85500.00000 0 6556560.431 -22654103.377 9742275.477 10 0 60638 0.00000 0 6359018.136 -21291550.716 12551204.034 10 0 60638 900.00000 0 6266846.051 -19588033.429 15116683.858 10 0 60638 1800.00000 0 6323510.378 -17586192.076 17389088.317 10 0 60638 2700.00000 0 6563986.591 -15338285.420 19324504.980 10 0 60638 3600.00000 0 7013102.220 -12904169.982 20885570.110 10 0 60638 4500.00000 0 7684318.109 -10348980.836 22042175.595 10 0 60638 5400.00000 0 8578998.552 -7740609.613 22772036.058 10 0 60638 6300.00000 0 9686200.469 -5147083.398 23061106.709 10 0 60638 7200.00000 0 10982990.263 -2633951.745 22903845.191 10 0 60638 8100.00000 0 12435275.480 -261788.328 22303313.321 10 0 60638 9000.00000 0 13999117.326 1916091.271 21271117.270 10 0 60638 9900.00000 0 15622470.469 3855602.964 19827187.335 10 0 60638 10800.00000 0 17247279.052 5523478.722 17999401.046 10 0 60638 11700.00000 0 18811843.112 6898398.043 15823055.942 10 0 60638 12600.00000 0 20253358.225 7971620.322 13340200.929 10 0 60638 13500.00000 0 21510523.677 8747092.532 10598837.675 10 0 60638 14400.00000 0 22526111.102 9241027.978 7652005.939 10 0 60638 15300.00000 0 23249386.554 9480973.740 4556769.154 10 0 60638 16200.00000 0 23638284.461 9504405.643 1373118.724 10 0 60638 17100.00000 0 23661241.577 9356909.479 -1837182.598 10 0 60638 18000.00000 0 23298612.796 9090024.763 -5011796.246 10 0 60638 18900.00000 0 22543607.724 8758841.857 -8089019.159 10 0 60638 19800.00000 0 21402706.778 8419454.070 -11008987.108 10 0 60638 20700.00000 0 19895537.337 8126372.945 -13714845.976 10 0 60638 21600.00000 0 18054213.181 7930016.831 -16153867.472 10 0 60638 22500.00000 0 15922163.189 7874380.171 -18278486.637 10 0 60638 23400.00000 0 13552496.953 7994983.456 -20047239.955 10 0 60638 24300.00000 0 11005974.721 8317192.156 -21425584.910 10 0 60638 25200.00000 0 8348665.892 8854977.287 -22386584.155 10 0 60638 26100.00000 0 5649393.710 9610171.630 -22911440.227 10 0 60638 27000.00000 0 2977072.841 10572254.468 -22989869.782 10 0 60638 27900.00000 0 398051.162 11718675.186 -22620309.582 10 0 60638 28800.00000 0 -2026433.017 13015703.064 -21809949.857 10 0 60638 29700.00000 0 -4242572.011 14419768.048 -20574594.180 10 0 60638 30600.00000 0 -6205991.214 15879236.288 -18938348.538 10 0 60638 31500.00000 0 -7883349.571 17336545.497 -16933145.751 10 0 60638 32400.00000 0 -9253471.865 18730609.765 -14598114.831 10 0 60638 33300.00000 0 -10307966.547 19999391.862 -11978808.043 10 0 60638 34200.00000 0 -11051304.793 21082533.809 -9126301.506 10 0 60638 35100.00000 0 -11500359.424 21923934.057 -6096187.741 10 0 60638 36000.00000 0 -11683425.398 22474161.986 -2947480.871 10 0 60638 36900.00000 0 -11638765.525 22692607.429 258543.030 10 0 60638 37800.00000 0 -11412745.166 22549274.535 3459546.760 10 0 60638 38700.00000 0 -11057636.916 22026144.571 6593349.614 10 0 60638 39600.00000 0 -10629189.827 21118050.814 9599137.356 10 0 60638 40500.00000 0 -10184067.318 19833029.510 12418640.636 10 0 60638 41400.00000 0 -9777262.777 18192133.081 14997259.006 10 0 60638 42300.00000 0 -9459602.236 16228714.282 17285109.145 10 0 60638 43200.00000 0 -9275439.166 13987212.016 19237977.907 10 0 60638 44100.00000 0 -9260637.786 11521489.910 20818162.986 10 0 60638 45000.00000 0 -9440928.803 8892796.929 21995186.436 10 0 60638 45900.00000 0 -9830705.600 6167434.369 22746368.831 10 0 60638 46800.00000 0 -10432310.486 3414225.139 23057254.584 10 0 60638 47700.00000 0 -11235840.264 701888.913 22921881.473 10 0 60638 48600.00000 0 -12219479.061 -1903569.883 22342890.211 10 0 60638 49500.00000 0 -13350344.751 -4341355.041 21331472.454 10 0 60638 50400.00000 0 -14585814.321 -6558151.240 19907158.283 10 0 60638 51300.00000 0 -15875273.937 -8510084.152 18097446.794 10 0 60638 52200.00000 0 -17162221.957 -10164288.355 15937286.020 10 0 60638 53100.00000 0 -18386638.454 -11500019.162 13468410.954 10 0 60638 54000.00000 0 -19487523.502 -12509262.996 10738551.033 10 0 60638 54900.00000 0 -20405499.050 -13196821.309 7800520.845 10 0 60638 55800.00000 0 -21085366.005 -13579864.575 4711210.255 10 0 60638 56700.00000 0 -21478509.358 -13686974.848 1530492.319 10 0 60638 57600.00000 0 -21545049.925 -13556716.706 -1679930.778 10 0 60638 58500.00000 0 -21255651.217 -13235796.247 -4857721.789 10 0 60638 59400.00000 0 -20592903.969 -12776885.432 -7941119.443 10 0 60638 60300.00000 0 -19552228.156 -12236203.457 -10870142.659 10 0 60638 61200.00000 0 -18142252.459 -11670957.487 -13587763.916 10 0 60638 62100.00000 0 -16384653.014 -11136751.418 -16041028.194 10 0 60638 63000.00000 0 -14313456.093 -10685073.036 -18182094.802 10 0 60638 63900.00000 0 -11973832.141 -10360966.881 -19969180.813 10 0 60638 64800.00000 0 -9420430.146 -10200992.454 -21367386.842 10 0 60638 65700.00000 0 -6715320.928 -10231555.414 -22349388.213 10 0 60638 66600.00000 0 -3925634.641 -10467683.603 -22895977.311 10 0 60638 67500.00000 0 -1120990.780 -10912300.836 -22996445.946 10 0 60638 68400.00000 0 1629172.089 -11556030.165 -22648799.774 10 0 60638 69300.00000 0 4258255.351 -12377535.712 -21859800.241 10 0 60638 70200.00000 0 6705036.993 -13344389.142 -20644833.019 10 0 60638 71100.00000 0 8915979.975 -14414424.364 -19027605.393 10 0 60638 72000.00000 0 10847215.983 -15537523.110 -17039678.620 10 0 60638 72900.00000 0 12466122.122 -16657755.551 -14719844.660 10 0 60638 73800.00000 0 13752425.386 -17715784.869 -12113359.908 10 0 60638 74700.00000 0 14698789.881 -18651433.345 -9271051.600 10 0 60638 75600.00000 0 15310863.856 -19406300.684 -6248315.223 10 0 60638 76500.00000 0 15606786.612 -19926323.111 -3104023.485 10 0 60638 77400.00000 0 15616178.351 -20164164.451 100630.700 10 0 60638 78300.00000 0 15378657.910 -20081337.820 3303333.582 10 0 60638 79200.00000 0 14941953.231 -19649968.283 6441867.974 10 0 60638 80100.00000 0 14359686.365 -18854122.330 9455324.199 10 0 60638 81000.00000 0 13688928.164 -17690648.695 12285280.647 10 0 60638 81900.00000 0 12987626.954 -16169495.787 14876931.031 10 0 60638 82800.00000 0 12312020.214 -14313493.102 17180136.865 10 0 60638 83700.00000 0 11714138.253 -12157606.435 19150385.664 10 0 60638 84600.00000 0 11239504.395 -9747698.333 20749637.539 10 0 60638 85500.00000 0 10925127.402 -7138845.570 21947045.285 99